• In Uzbekistan
  • List of Countries
  • For 7 days
  • Water Temperature
  • Satellite Maps
  • Weather Map
  • Weather Widgets
  • user-avatar
    Login

    Hourly Weather Andora

    Today, 30 May, Tuesday

    Time Temperature Precipitation Wind Pressure Humidity
    00:00 +5°C° 0 mm 0 mps 623 mmHg 84%
    01:00 +6°C° 0 mm 1 mps 623 mmHg 85%
    02:00 +6°C° 0 mm 1 mps 623 mmHg 85%
    03:00 +6°C° 0 mm 1 mps 623 mmHg 85%
    04:00 +7°C° 0 mm 1 mps 624 mmHg 81%
    05:00 +9°C° 0 mm 1 mps 625 mmHg 78%
    06:00 +11°C° 0 mm 1 mps 626 mmHg 74%
    07:00 +12°C° 0 mm 1 mps 626 mmHg 69%
    08:00 +13°C° 0 mm 1 mps 627 mmHg 64%
    09:00 +15°C° 0 mm 1 mps 628 mmHg 59%
    10:00 +15°C° 0.2 mm 1 mps 628 mmHg 58%
    11:00 +15°C° 0.2 mm 2 mps 628 mmHg 56%
    12:00 +16°C° 0.2 mm 2 mps 628 mmHg 55%
    13:00 +16°C° 0.2 mm 2 mps 628 mmHg 53%
    14:00 +16°C° 0.2 mm 2 mps 628 mmHg 51%
    15:00 +17°C° 0.2 mm 2 mps 628 mmHg 49%
    16:00 +16°C° 0.2 mm 2 mps 628 mmHg 53%
    17:00 +15°C° 0.2 mm 2 mps 627 mmHg 58%
    18:00 +14°C° 0.2 mm 1 mps 627 mmHg 62%
    19:00 +12°C° 0.2 mm 1 mps 627 mmHg 70%
    20:00 +10°C° 0.2 mm 1 mps 626 mmHg 79%
    21:00 +8°C° 0.2 mm 1 mps 626 mmHg 88%
    22:00 +8°C° 0.1 mm 1 mps 626 mmHg 89%
    23:00 +8°C° 0.1 mm 1 mps 626 mmHg 89%

    Tomorrow, 31 May, Wednesday

    Time Temperature Precipitation Wind Pressure Humidity
    00:00 +7°C° 0.1 mm 1 mps 626 mmHg 90%
    01:00 +7°C° 0.2 mm 1 mps 625 mmHg 91%
    02:00 +6°C° 0.2 mm 0 mps 625 mmHg 91%
    03:00 +5°C° 0.2 mm 0 mps 625 mmHg 92%
    04:00 +7°C° 0.4 mm 0 mps 626 mmHg 88%
    05:00 +8°C° 0.4 mm 0 mps 626 mmHg 83%
    06:00 +9°C° 0.4 mm 0 mps 627 mmHg 79%
    07:00 +11°C° 0.4 mm 0 mps 628 mmHg 74%
    08:00 +13°C° 0.4 mm 1 mps 628 mmHg 69%
    09:00 +14°C° 0.4 mm 1 mps 629 mmHg 63%
    10:00 +15°C° 0.6 mm 1 mps 629 mmHg 62%
    11:00 +15°C° 0.6 mm 1 mps 629 mmHg 62%
    12:00 +16°C° 0.6 mm 1 mps 629 mmHg 61%
    13:00 +16°C° 0.7 mm 1 mps 629 mmHg 61%
    14:00 +16°C° 0.7 mm 1 mps 629 mmHg 62%
    15:00 +16°C° 0.7 mm 1 mps 628 mmHg 62%
    16:00 +15°C° 0.6 mm 1 mps 628 mmHg 65%
    17:00 +14°C° 0.6 mm 1 mps 628 mmHg 69%
    18:00 +14°C° 0.6 mm 1 mps 628 mmHg 72%
    19:00 +11°C° 0.1 mm 0 mps 627 mmHg 78%
    20:00 +9°C° 0.1 mm 0 mps 627 mmHg 83%
    21:00 +7°C° 0.1 mm 0 mps 626 mmHg 89%
    22:00 +6°C° 0 mm 0 mps 626 mmHg 89%
    23:00 +6°C° 0 mm 0 mps 626 mmHg 89%

    Day after tomorrow, 1 June, Thursday

    Time Temperature Precipitation Wind Pressure Humidity
    00:00 +5°C° 0 mm 0 mps 625 mmHg 90%
    01:00 +5°C° 0 mm 0 mps 625 mmHg 90%
    02:00 +5°C° 0 mm 0 mps 625 mmHg 89%
    03:00 +6°C° 0 mm 1 mps 625 mmHg 89%
    04:00 +8°C° 0 mm 1 mps 626 mmHg 84%
    05:00 +10°C° 0 mm 1 mps 627 mmHg 80%
    06:00 +12°C° 0 mm 1 mps 628 mmHg 75%
    07:00 +14°C° 0 mm 1 mps 629 mmHg 66%
    08:00 +16°C° 0 mm 1 mps 630 mmHg 57%
    09:00 +17°C° 0 mm 0 mps 630 mmHg 48%
    10:00 +19°C° 0.2 mm 1 mps 630 mmHg 49%
    11:00 +20°C° 0.2 mm 1 mps 630 mmHg 49%
    12:00 +20°C° 0.2 mm 1 mps 630 mmHg 50%
    13:00 +20°C° 0.5 mm 1 mps 630 mmHg 52%
    14:00 +19°C° 0.5 mm 1 mps 630 mmHg 55%
    15:00 +19°C° 0.5 mm 1 mps 629 mmHg 58%
    16:00 +18°C° 0.2 mm 1 mps 629 mmHg 62%
    17:00 +18°C° 0.2 mm 1 mps 629 mmHg 66%
    18:00 +16°C° 0.2 mm 1 mps 628 mmHg 70%
    19:00 +14°C° 0 mm 1 mps 628 mmHg 76%
    20:00 +11°C° 0 mm 1 mps 627 mmHg 82%
    21:00 +9°C° 0 mm 1 mps 626 mmHg 88%
    22:00 +9°C° 0 mm 1 mps 626 mmHg 88%
    23:00 +9°C° 0 mm 1 mps 626 mmHg 87%

    2 June, Friday

    Time Temperature Precipitation Wind Pressure Humidity
    00:00 +8°C° 0 mm 1 mps 626 mmHg 87%
    01:00 +8°C° 0 mm 1 mps 626 mmHg 86%
    02:00 +8°C° 0 mm 1 mps 625 mmHg 86%
    03:00 +8°C° 0 mm 1 mps 625 mmHg 85%
    04:00 +10°C° 0 mm 1 mps 626 mmHg 82%
    05:00 +11°C° 0 mm 1 mps 627 mmHg 79%
    06:00 +13°C° 0 mm 1 mps 627 mmHg 76%
    07:00 +15°C° 0 mm 1 mps 628 mmHg 68%
    08:00 +18°C° 0 mm 1 mps 629 mmHg 60%
    09:00 +19°C° 0 mm 2 mps 630 mmHg 53%
    10:00 +19°C° 0.2 mm 2 mps 630 mmHg 52%
    11:00 +20°C° 0.2 mm 2 mps 630 mmHg 51%
    12:00 +21°C° 0.2 mm 3 mps 629 mmHg 49%
    13:00 +21°C° 0.4 mm 3 mps 629 mmHg 50%
    14:00 +21°C° 0.4 mm 3 mps 629 mmHg 51%
    15:00 +21°C° 0.4 mm 3 mps 629 mmHg 52%
    16:00 +20°C° 0.2 mm 2 mps 628 mmHg 57%
    17:00 +19°C° 0.2 mm 2 mps 628 mmHg 61%
    18:00 +17°C° 0.2 mm 2 mps 628 mmHg 66%
    19:00 +15°C° 0.1 mm 2 mps 627 mmHg 73%
    20:00 +13°C° 0.1 mm 1 mps 626 mmHg 81%
    21:00 +11°C° 0.1 mm 1 mps 626 mmHg 88%
    22:00 +10°C° 0 mm 1 mps 625 mmHg 88%
    23:00 +10°C° 0 mm 1 mps 625 mmHg 87%

    3 June, Saturday

    Time Temperature Precipitation Wind Pressure Humidity
    00:00 +10°C° 0 mm 1 mps 625 mmHg 87%
    01:00 +9°C° 0 mm 1 mps 625 mmHg 88%
    02:00 +9°C° 0 mm 1 mps 624 mmHg 88%
    03:00 +8°C° 0 mm 1 mps 624 mmHg 89%
    04:00 +10°C° 0 mm 1 mps 625 mmHg 85%
    05:00 +11°C° 0 mm 1 mps 626 mmHg 80%
    06:00 +13°C° 0 mm 1 mps 627 mmHg 76%
    07:00 +15°C° 0 mm 1 mps 627 mmHg 67%
    08:00 +17°C° 0 mm 2 mps 628 mmHg 59%
    09:00 +19°C° 0 mm 2 mps 629 mmHg 51%
    10:00 +19°C° 0.1 mm 2 mps 629 mmHg 51%
    11:00 +20°C° 0.1 mm 2 mps 629 mmHg 52%
    12:00 +20°C° 0.1 mm 3 mps 629 mmHg 52%
    13:00 +20°C° 0.5 mm 3 mps 629 mmHg 55%
    14:00 +19°C° 0.5 mm 2 mps 629 mmHg 58%
    15:00 +19°C° 0.5 mm 2 mps 629 mmHg 62%
    16:00 +18°C° 0.5 mm 2 mps 628 mmHg 67%
    17:00 +17°C° 0.5 mm 2 mps 628 mmHg 73%
    18:00 +16°C° 0.5 mm 1 mps 628 mmHg 79%
    19:00 +14°C° 0.4 mm 1 mps 628 mmHg 83%
    20:00 +13°C° 0.4 mm 1 mps 628 mmHg 88%
    21:00 +12°C° 0.4 mm 1 mps 628 mmHg 93%
    22:00 +12°C° 0.4 mm 1 mps 628 mmHg 94%
    23:00 +11°C° 0.4 mm 1 mps 628 mmHg 95%

    4 June, Sunday

    Time Temperature Precipitation Wind Pressure Humidity
    00:00 +11°C° 0.4 mm 1 mps 627 mmHg 96%
    01:00 +11°C° 0.3 mm 1 mps 627 mmHg 96%
    02:00 +10°C° 0.3 mm 1 mps 627 mmHg 96%
    03:00 +10°C° 0.3 mm 1 mps 627 mmHg 96%
    04:00 +10°C° 0.1 mm 0 mps 627 mmHg 94%
    05:00 +10°C° 0.1 mm 0 mps 628 mmHg 92%
    06:00 +11°C° 0.1 mm 0 mps 628 mmHg 91%
    07:00 +13°C° 0.1 mm 1 mps 628 mmHg 86%
    08:00 +14°C° 0.1 mm 1 mps 629 mmHg 81%
    09:00 +15°C° 0.1 mm 1 mps 629 mmHg 76%
    10:00 +15°C° 0.3 mm 1 mps 629 mmHg 74%
    11:00 +16°C° 0.3 mm 2 mps 629 mmHg 72%
    12:00 +16°C° 0.3 mm 2 mps 629 mmHg 70%
    13:00 +16°C° 0.7 mm 2 mps 629 mmHg 72%
    14:00 +16°C° 0.7 mm 2 mps 629 mmHg 74%
    15:00 +16°C° 0.7 mm 1 mps 628 mmHg 76%
    16:00 +15°C° 0.8 mm 1 mps 628 mmHg 79%
    17:00 +15°C° 0.8 mm 1 mps 628 mmHg 82%
    18:00 +14°C° 0.8 mm 1 mps 628 mmHg 85%
    19:00 +13°C° 0.6 mm 1 mps 628 mmHg 88%
    20:00 +12°C° 0.6 mm 1 mps 627 mmHg 92%
    21:00 +11°C° 0.6 mm 1 mps 627 mmHg 95%
    22:00 +11°C° 0.3 mm 1 mps 627 mmHg 96%
    23:00 +11°C° 0.3 mm 1 mps 627 mmHg 96%
    Show more